GLOBALSTAR M080 [+]

Last updated on July 6, 2021, 3:36 p.m. UTC

1 38041U 11080B   21186.57393485 -.00000119  00000-0 -86306-4 0  9998
2 38041  52.0056 121.4227 0000733  47.2754 123.4642 12.62269483440684
UTC
Height (km)
Latitude
Longitude
Inclination
Orbital Period
UTC large
Height (km)
Speed (km/s)
/
Latitude / Longitude
Inclination (degrees)
Orbital Period (minutes)
Azimuth
Elevation
Range (km)
Doppler Factor
iOS Compass Heading
iOS Angle